Regional Weather Roundup
Issued by NWS Cleveland, OH

Home | Current Version | Previous Version | Graphics & Text | Print | Product List | Glossary Off
Versions: 1 2 3 4 5 6 7 8 9 10 11 12 13 14 15 16 17 18 19 20 21 22 23 24 25 26 27 28 29 30 31 32 33 34 35 36 37 38 39 40 41 42 43 44 45 46 47 48 49 50

000
ASUS41 KCLE 190212
RWRCLE
OHIO REGIONAL WEATHER ROUNDUP
NATIONAL WEATHER SERVICE WILMINGTON, OH
900 PM EST THU JAN 18 2018

NOTE: "FAIR" INDICATES FEW OR NO CLOUDS BELOW 12,000 FEET WITH NO
SIGNIFICANT WEATHER AND/OR OBSTRUCTIONS TO VISIBILITY.

OHZ001>008-015>018-024>027-034-035-043-044-190300-
   NORTHWEST OHIO

CITY           SKY/WX    TMP DP  RH WIND       PRES   REMARKS
DEFIANCE       FAIR      23  12  62 SW9       30.08R WCI  13
FINDLAY        FAIR      29  13  51 SW18      30.08F WCI  16
TOLEDO EXPRESS FAIR      24  16  71 SW12      30.05S WCI  13
TOLEDO EXEC    FAIR      25  15  66 SW17      30.06S WCI  12
LIMA           FAIR      26  14  60 SW13      30.10S WCI  15
$$

OHZ009>014-019>023-028>033-038-089-190300-
   NORTHEAST OHIO

CITY           SKY/WX    TMP DP  RH WIND       PRES   REMARKS
CLE-HOPKINS    FAIR      28  13  53 S18       30.08F WCI  15
CLE-LAKEFRONT  FAIR      28  13  53 S16G26    30.05F WCI  16
CUY CO. ARPT   CLEAR     28  12  50 SW16      30.05  WCI  17
LORAIN-ELYRIA  FAIR      26  11  52 SW20      30.06F WCI  12
ASHTABULA      FAIR      24  12  60 S13       30.04F WCI  12
AKRON-CANTON   FAIR      23  11  60 SW17      30.09F WCI   9
WOOSTER        FAIR      23  12  62 SW14G21   30.10F WCI  11
MANSFIELD      FAIR      24  13  62 S18       30.08F WCI  10
YOUNGSTOWN     FAIR      24  11  57 SW17G25   30.06F WCI  11
$$

OHZ042-051>053-060>062-070>072-077>081-190300-
  SOUTHWEST OHIO

CITY           SKY/WX    TMP DP  RH WIND       PRES   REMARKS
CINC-COVINGTON FAIR      25  14  63 S16       30.21F WCI  12
CINC-LUNKEN    FAIR      25  13  60 S12       30.26F WCI  14
HAMILTON       FAIR      27  14  58 S7        30.23F WCI  19
DAYTON         FAIR      25  14  63 SW18      30.16S WCI  11
WRIGHT-PAT AFB FAIR      25   7  46 S16       30.17F WCI  12
DAYTON GENERAL FAIR      25  13  60 S12       30.18S WCI  14
WILMINGTON     FAIR      21  12  68 S13       30.18F WCI   9
$$

OHZ036-037-039>041-045>050-054>059-063>069-073>076-082>088-190300-
  CENTRAL AND SOUTHEAST OHIO

CITY           SKY/WX    TMP DP  RH WIND       PRES   REMARKS
COLUMBUS       FAIR      25  12  58 S13       30.20F WCI  14
OSU AIRPORT    FAIR      23  13  65 S10       30.17F WCI  12
BOLTON FIELD   FAIR      22  12  65 S9        30.19F WCI  12
RICKENBACK AFB FAIR      23  11  61 S9        30.20F WCI  13
NEWARK         FAIR      23  10  57 S9        30.18F WCI  13
MARION         FAIR      23  13  65 S18       30.12F WCI   9
LANCASTER      FAIR      24  11  57 S13       30.20F WCI  12
ZANESVILLE     FAIR      23  10  57 S8        30.19F WCI  14
NEW PHILLY     FAIR      26  10  50 VRB6      30.17F WCI  19
$$



USA.gov is the U.S. government's official web portal to all federal, state and local government web resources and services.